Location: Oshawa
(43.9000°N, 78.8670°W)
Time: 23:29:28
(UTC-05:00)

Explorer 7 - Visible Passes

Search period start: 04 December 2016 00:00
Search period end: 14 December 2016 00:00
Orbit: 486 x 685 km, 50.3° (Epoch: 04 December)

Date Brightness Start Highest point End Pass type
(mag) Time Alt. Az. Time Alt. Az. Time Alt. Az.
04 Dec 9.9 04:04:43 14° ENE 04:04:43 14° ENE 04:05:24 10° ENE visible
04 Dec 7.1 05:41:07 43° NW 05:42:26 68° NNE 05:47:03 10° ESE visible
05 Dec 9.7 04:10:43 16° ENE 04:10:43 16° ENE 04:11:48 10° E visible
05 Dec 6.9 05:47:07 42° WNW 05:48:35 86° SSW 05:53:13 10° ESE visible
06 Dec 9.5 04:16:46 19° E 04:16:46 19° E 04:18:12 10° E visible
06 Dec 7.2 05:53:10 37° W 05:54:40 59° SW 05:59:13 10° SE visible
07 Dec 9.3 04:22:52 22° E 04:22:52 22° E 04:24:33 10° ESE visible
07 Dec 7.7 05:59:16 30° W 06:00:42 38° SW 06:04:58 10° SSE visible
08 Dec 9.2 04:29:01 23° ESE 04:29:01 23° ESE 04:30:47 10° ESE visible
08 Dec 8.3 06:05:26 22° WSW 06:06:39 24° SW 06:10:22 10° S visible
09 Dec 9.2 04:35:14 22° SE 04:35:14 22° SE 04:36:53 10° SE visible
09 Dec 8.9 06:11:39 15° WSW 06:12:33 15° SW 06:15:11 10° SSW visible
10 Dec 9.3 04:41:31 18° SSE 04:41:31 18° SSE 04:42:45 10° SE visible
11 Dec 9.6 04:47:53 12° SSE 04:47:53 12° SSE 04:48:21 10° SSE visible
